Torna al catalogo

THOR ABLESTAR DEB

AttivoLEO
NORAD 119·DEBRIS·🇺🇸 United States

Lanciato Jun 29, 1961 da Cape Canaveral Space Force Station

Loading…

Prossimi Passaggi (prossime 24 ore)

TLE

AggiornatoSource: Space-Track

Epoca: Sep 7, 2026, 05:05 UTC

1 00119U 61015D   26250.21192815  .00000348  00000-0  16679-3 0  9995
2 00119  66.7268 175.1170 0103104 203.8452 155.7852 14.27418774370023

Traccia THOR ABLESTAR DEB in tempo reale con AllMySat

Download on the App Store